DW3777 Weather Reports


Display with metric or nautical units.
time (UTC)temp
F
wind
direction
speed
MPH
gust
MPH
rain 1hr
in
rain 24hr
in
rain mn
in
humidity
%
barometer
mb
20260508073022 37 220 6.0 10.0 0.00 0.13 0.05 80 1021.5
20260508071520 37 249 5.0 9.0 0.00 0.13 0.05 81 1021.4
20260508070019 37 203 6.0 10.0 0.00 0.13 0.05 85 1021.3
20260508064544 37 178 5.0 10.0 0.01 0.13 0.05 85 1021.1
20260508063016 36 246 7.0 12.0 0.01 0.13 0.05 85 1021.0
20260508061512 36 229 6.0 10.0 0.01 0.13 0.05 87 1020.9
20260508060008 35 240 3.0 7.0 0.02 0.13 0.05 90 1020.7
20260508054506 34 278 0.0 2.0 0.01 0.12 0.04 91 1020.7
20260508053004 33 278 0.0 2.0 0.01 0.12 0.04 91 1020.5
20260508051507 33 190 0.0 2.0 0.01 0.12 0.04 92 1020.4
20260508050002 33 190 1.0 2.0 0.00 0.11 0.03 91 1020.3
20260508044502 33 188 0.0 2.0 0.00 0.11 0.03 91 1020.3
20260508043101 33 217 2.0 4.0 0.01 0.11 0.03 91 1020.1
20260508041559 33 203 1.0 4.0 0.01 0.11 0.03 91 1020.0
20260508040104 33 227 2.0 5.0 0.01 0.11 0.03 92 1019.8
20260508034555 32 238 5.0 9.0 0.01 0.12 0.03 91 1019.7
20260508033057 32 229 6.0 13.0 0.00 0.11 0.02 91 1019.7
20260508031602 33 217 7.0 11.0 0.00 0.11 0.02 89 1019.6
20260508030100 33 239 6.0 9.0 0.01 0.11 0.02 89 1019.5
20260508024548 32 238 5.0 8.0 0.01 0.11 0.02 90 1019.4
20260508023048 32 240 5.0 8.0 0.01 0.11 0.02 91 1019.3
20260508021549 32 262 7.0 10.0 0.01 0.11 0.02 92 1019.3
20260508020049 32 250 5.0 8.0 0.00 0.10 0.02 92 1019.3
20260508014545 32 224 5.0 7.0 0.00 0.10 0.02 92 1019.1
20260508013043 32 254 4.0 10.0 0.00 0.10 0.02 92 1019.0
20260508011546 32 236 9.0 14.0 0.02 0.10 0.02 92 1019.0
20260508010041 33 243 6.0 10.0 0.02 0.10 0.02 91 1018.9
20260508004539 32 194 0.0 3.0 0.02 0.10 0.02 90 1018.7
20260508003032 33 245 2.0 3.0 0.02 0.10 0.02 89 1018.5
20260508001530 0 0.0 0.0 0.00 0.09 0.00 1018.4
20260508000023 0 0.0 0.0 0.00 0.09 0.00 1018.4
20260507234529 0 0.0 0.0 0.00 0.09 0.00 1018.3
20260507233024 34 219 8.0 11.0 0.00 0.09 0.00 83 1018.0
20260507231515 34 232 6.0 11.0 0.00 0.09 0.00 83 1017.8
20260507230013 34 231 5.0 8.0 0.00 0.09 0.00 82 1017.7
20260507214515 34 242 8.0 9.0 0.00 0.09 0.09 81 1017.2
20260507213004 0 0.0 0.0 0.00 0.09 0.09 1017.1
20260507211609 0 0.0 0.0 0.00 0.09 0.09 1017.0
20260507210055 0 0.0 0.0 0.00 0.09 0.09 1016.8
20260507204551 0 0.0 0.0 0.00 0.09 0.09 1016.6
20260507203051 0 0.0 0.0 0.00 0.09 0.09 1016.6
20260507201542 0 0.0 0.0 0.00 0.09 0.09 1016.4
20260507200040 0 0.0 0.0 0.00 0.09 0.09 1016.4
20260507194536 0 0.0 0.0 0.00 0.09 0.09 1016.3
20260507193029 0 0.0 0.0 0.00 0.09 0.09 1016.2
20260507191527 0 0.0 0.0 0.00 0.09 0.09 1016.1
20260507190023 0 0.0 0.0 0.00 0.09 0.09 1016.0
20260507184516 0 0.0 0.0 0.00 0.09 0.09 1016.0
20260507183012 35 51 3.0 5.0 0.00 0.09 0.09 91 1015.8
20260507181508 35 42 3.0 4.0 0.00 0.09 0.09 91 1015.8
20260507180004 35 41 2.0 4.0 0.00 0.09 0.09 91 1015.7
20260507174636 35 36 2.0 4.0 0.00 0.09 0.09 90 1015.6
20260507173056 35 31 2.0 4.0 0.00 0.09 0.09 89 1015.6
20260507171603 35 23 2.0 6.0 0.00 0.09 0.09 89 1015.5
20260507170046 36 54 4.0 7.0 0.00 0.09 0.09 89 1015.5
20260507164541 36 87 4.0 9.0 0.00 0.09 0.09 89 1015.5
20260507163036 36 45 5.0 8.0 0.00 0.09 0.09 89 1015.3
20260507161536 37 27 4.0 7.0 0.00 0.09 0.09 88 1015.2
20260507160031 37 86 1.0 3.0 0.00 0.09 0.09 87 1015.0
20260507154523 37 84 1.0 3.0 0.00 0.09 0.09 87 1015.1
20260507153024 37 150 3.0 8.0 0.00 0.09 0.09 85 1014.9
20260507151515 38 145 3.0 6.0 0.00 0.09 0.09 86 1014.9
20260507150009 39 116 3.0 7.0 0.02 0.09 0.09 85 1014.9
20260507144504 36 304 3.0 5.0 0.02 0.09 0.09 87 1014.8
20260507143119 36 284 4.0 10.0 0.02 0.09 0.09 89 1014.9
20260507141619 35 248 1.0 9.0 0.02 0.09 0.09 88 1014.9
20260507140110 37 234 3.0 4.0 0.00 0.06 0.06 89 1014.7
20260507134547 36 195 3.0 6.0 0.00 0.06 0.06 90 1014.5
20260507133042 37 171 4.0 7.0 0.02 0.06 0.06 89 1014.5
20260507131606 36 252 2.0 7.0 0.03 0.06 0.06 90 1014.3
20260507130034 35 229 4.0 8.0 0.05 0.06 0.06 90 1014.3
20260507124531 34 242 6.0 10.0 0.05 0.06 0.06 89 1014.2
20260507123028 34 257 8.0 12.0 0.03 0.05 0.05 87 1014.1
20260507121518 34 283 11.0 15.0 0.02 0.03 0.03 86 1014.1
20260507120026 38 266 10.0 14.0 0.00 0.02 0.02 77 1013.8
20260507114511 39 222 11.0 17.0 0.00 0.02 0.02 75 1013.4
20260507113012 39 215 12.0 19.0 0.00 0.02 0.02 76 1013.2
20260507111507 39 180 9.0 14.0 0.00 0.02 0.02 78 1013.0
20260507110006 38 200 9.0 17.0 0.00 0.02 0.02 78 1013.0
20260507104505 39 181 11.0 19.0 0.00 0.02 0.02 78 1012.9
20260507103002 39 194 11.0 18.0 0.00 0.02 0.02 76 1012.8
20260507101600 40 211 9.0 14.0 0.00 0.02 0.02 76 1012.7
20260507094611 37 174 5.0 15.0 0.00 0.02 0.02 80 1012.6
20260507093054 37 184 9.0 13.0 0.00 0.02 0.02 77 1012.5
20260507091552 38 219 6.0 16.0 0.00 0.02 0.02 76 1012.3
20260507090049 38 182 7.0 14.0 0.00 0.02 0.02 78 1012.3
20260507084556 37 213 9.0 16.0 0.00 0.02 0.02 77 1012.3
20260507083046 37 196 10.0 13.0 0.01 0.02 0.02 82 1012.1
20260507081545 36 214 6.0 15.0 0.01 0.02 0.02 83 1012.1
20260507080043 38 207 9.0 18.0 0.01 0.02 0.02 78 1012.0
20260507074545 36 221 7.0 12.0 0.01 0.02 0.02 77 1011.8